CZ-8A R/B, 100212

Orbit data source: Space-Track

CZ-8A R/B, 100212 is space debris in LEO originally from a launch on Tue, 04 Aug 2026 UTC launched from the Wenchang Satellite Launch Center (WSC). Debris objects in space refer to the collection of defunct objects orbiting the Earth. Examples of debris include non-operational satellites, rocket bodies, and fragments generated from explosions, collisions, or faulty payload assembly.

Loading next visibility...
Identifier
100212, 2026-176K
Orbit
LEO
Country
Flag of CNCN / PRC
Related business
Manufacturer
CALT
Mission
Spacecraft
Bus & Motor
CZ-8A STAGE 2, Unknown motor
Mass
~2,800 kg wet, ~2,800 kg dry
Launch date (UTC)
2026-08-04 (2 months ago)
Launch vehicle
Unknown
Launch site
Wenchang Satellite Launch Center (WSC)
Object type
Payload
Rocket body
Debris
Shape & HBR
CYL, 8.0 m
Radar Cross Section
Large (>1 m²)

Expand to show TLE details & history
Last TLE update: 22 hours ago

TLE from 22 hours ago
0 CZ-8A R/B
1 A0212U 26176K   26263.19691848 -.00000444  00000-0 -33751-3 0  9998
2 A0212  49.9944 215.0378 0143478  41.3221 319.8420 13.67077165  6413
Epoch: 2026-09-20T04:43Z
TLE epoch observation values (Epoch: 2026-09-20T04:43:33.756Z)
Latitude
-0.00004°
Longitude
145.05255°
Altitude
930.228 km
Speed
7.428 km/s
True Right ascension
14h 20m 09s
True Declination
0° 00' 00"
Sunlit
Object was in daylight at epoch
Visualization orbit readout
Latitude
Unknown
Longitude
Unknown
Altitude
Unknown
Speed
Unknown
Apparent Right ascension
Unknown
Apparent Declination
Unknown
Sunlit
N/A
Visualization observer readout
Local Sidereal Time
20:10:04
Azimuth
Unknown
Elevation
Unknown
Doppler factor
Unknown
Orbital elements
Apogee altitude
1,116.818 km
Perigee altitude
904.788 km
Semi-major axis
7,388.94 km
Eccentricity
0.01435
Inclination
49.9944°
RAAN
215.0378°
Arg. of periapsis
41.3221°
True anomaly
318.76704°
Mean anomaly
319.842°
Eccentric anomaly
319.306°
Mean motion
3.4172 °/min
Orbital period
105.35 mins
BSTAR
-0.00033751
Loading maneuver chart data...
Computing Atmospheric mass density...
Loading historical data...
Loading historical data...
Loading historical data...
Loading historical data...
Loading historical data...
Loading historical data...
Loading historical data...

Documentation

Showing up to 5 results
|